www.pogodaiklimat.ru

Погода и климат >> Архив погоды >> Россия >> Ростовская область >> Таганрог


АРХИВ ПОГОДЫ в Таганроге

Время (UTC), дата Ветер
(напр.,м/с)
 
Видим.   Явления Облачность Т
(С)
Тd
(С)
f
(%)
Тe
(С)
Тes
(С)
Комфортность P
(гПа)
Po
(гПа)
Тmin
(С)
Tmax
(С)
R
(мм)
R24
(мм)
S
(см)
00 17.01 С 2 500 м туман ?/? -4.8 -5.5 95 -9 -9 по сезону 1013.6 1009.5
03 17.01 С 2 500 м переохл. туман ?/? -4.9 -5.7 94 -9 -9 по сезону 1015.8 1011.6 -5.2 13
06 17.01 СВ 2 1000 м дымка {туман} 10/10 300 м
[St]
-4.2 -5.0 94 -9 -9 по сезону 1017.7 1013.6
09 17.01 СВ 1 4000 м 9/9 300 м
[St]
-2.4 -3.9 89 -5 -4 по сезону 1018.8 1014.7
12 17.01 В 1 1000 м дымка 10/10 300 м
[St]
-3.1 -4.3 91 -5 -5 по сезону 1019.4 1015.3
15 17.01 ЮВ 1 1000 м дымка 10/10 300 м
[St]
-3.5 -4.5 93 -6 -6 по сезону 1020.8 1016.6 -2.0
18 17.01 В 1 500 м туман н/о -5.0 -5.8 94 -7 -7 по сезону 1021.3 1017.2
21 17.01 В 1 1000 м дымка {туман} 10/10 300 м
[St]
-4.2 -4.9 95 -7 -7 по сезону 1021.6 1017.5
00 18.01 штиль 0 10 км {туман} 9/9 600 м
[Sc]
-3.3 -4.0 95 -5 -5 по сезону 1021.0 1016.9
03 18.01 ЮЗ 2 10 км ясно -3.3 -4.0 95 -8 -8 по сезону 1020.4 1016.3 -5.1 12
06 18.01 Ю 3 10 км 10/10 300 м
[St]
-2.1 -2.8 95 -7 -7 по сезону 1020.8 1016.7
09 18.01 ЮЗ 2 500 м переохл. туман 9/9 300 м
[St]
-1.6 -2.6 93 -6 -5 по сезону 1020.6 1016.5
12 18.01 ЮВ 1 20 км {туман} 4/0
[Ac trans Ci fib]
+0.3 -1.1 90 -2 -0 по сезону 1018.9 1014.8
15 18.01 Ю 3 20 км 8/8 600 м
[Sc]
+1.0 -0.7 88 -4 -4 по сезону 1019.0 1015.0 +1.3
18 18.01 ЮЗ 3 20 км 10/10 600 м
[Sc]
+1.0 -1.1 86 -3 -3 по сезону 1018.5 1014.5
21 18.01 Ю 6 20 км 10/10 600 м
[Sc]
+1.3 -0.8 86 -5 -5 по сезону 1018.3 1014.2
00 19.01 ЮЗ 4 20 км 10/10 600 м
[Sc]
+1.7 -0.6 85 -3 -3 по сезону 1017.4 1013.3
03 19.01 ЮЗ 3 20 км 10/10 600 м
[Sc]
+1.6 -0.3 87 -3 -3 по сезону 1016.7 1012.6 +0.8 100
06 19.01 Ю 3 20 км 10/10 600 м
[Sc]
+0.9 -0.5 90 -4 -4 по сезону 1016.7 1012.7
09 19.01 ЮЗ 2 20 км 10/10 300 м
[St]
+1.7 +0.1 89 -2 -2 по сезону 1016.5 1012.5
12 19.01 ЮЗ 2 20 км в посл. час дождь 10/10 300 м
[St]
+2.6 +0.7 87 -1 -1 по сезону 1016.0 1012.0
15 19.01 СЗ 2 10 км 10/10 300 м
[St]
+2.6 +1.1 90 -1 -1 тепло 1017.2 1013.2 +3.3 0.0
18 19.01 С 3 10 км 10/10 300 м
[St]
+1.6 -1.3 81 -3 -3 по сезону 1019.4 1015.4
21 19.01 С 4 20 км 10/10 600 м
[Sc]
+1.0 -3.1 74 -4 -4 по сезону 1022.1 1018.1
00 20.01 С 3 20 км ясно -2.7 -8.4 65 -7 -7 по сезону 1024.7 1020.5
03 20.01 С 3 20 км ясно -4.9 -9.3 71 -10 -10 по сезону 1025.7 1021.5 -4.9 7
06 20.01 С 3 20 км 3/0
[Ci fib]
-5.3 -9.5 72 -11 -10 прохладно 1026.6 1022.5 -5.8
09 20.01 СВ 2 20 км 9/0
[Ac trans Ci fib]
-2.9 -8.7 64 -7 -4 по сезону 1026.8 1022.6
12 20.01 В 2 20 км 9/0
[Ci fib]
+1.0 -7.1 55 -2 -1 по сезону 1025.3 1021.2
15 20.01 В 2 20 км 9/0
[Ac trans Ci fib]
-2.2 -5.6 77 -6 -6 по сезону 1024.7 1020.6 +1.1
18 20.01 В 1 20 км 9/9 1000 м
[Sc Ci fib]
-1.4 -5.3 75 -3 -3 по сезону 1023.9 1019.8
21 20.01 В 3 20 км 8/0
[Ac trans Ci fib]
-2.1 -4.2 86 -7 -7 по сезону 1022.4 1018.3
00 21.01 В 2 20 км 9/9 1000 м
[Sc]
-1.1 -2.5 90 -5 -5 по сезону 1020.7 1016.7
03 21.01 В 3 4000 м дымка 10/10 600 м
[St]
-0.5 -1.7 92 -5 -5 по сезону 1017.9 1013.8 -2.3 7
06 21.01 ЮВ 1 4000 м дымка 9/4 600 м
[St Ac As]
+0.8 -0.5 91 -1 -1 тепло 1016.0 1012.0
09 21.01 Ю 2 10 км 10/10 300 м
[St]
+2.2 -0.5 82 -1 -1 тепло 1014.3 1010.3
12 21.01 ЮЗ 5 10 км слаб. дождь 10/10 200 м
[Frnb Ns]
+2.3 +0.9 90 -3 -3 по сезону 1012.1 1008.1
15 21.01 С 3 10 км слаб. дождь {туман} 10/10 200 м
[Frnb Ns]
+2.5 +1.4 92 -2 -2 по сезону 1012.2 1008.2 +3.0 8
18 21.01 С 6-10
{10}
10 км слаб. дождь {туман} 10/10 200 м
[Frnb Ns]
+0.9 -0.7 89 -6 -6 по сезону 1012.9 1008.9
21 21.01 С 6-10
{12}
10 км в посл. час снег {дождь} 10/10 300 м
[St]
-1.4 -5.3 75 -8 -8 по сезону 1016.5 1012.4
00 22.01 С 5
{11}
20 км {снег, дождь} 10/10 300 м
[St]
-3.8 -7.4 76 -11 -11 по сезону 1018.7 1014.6
03 22.01 С 4
{11}
20 км 9/9 600 м
[Sc]
-6.5 -9.1 82 -13 -13 прохладно 1020.7 1016.6 -6.5 1 5
06 22.01 С 3 10 км 4/1 600 м
[Sc Ac trans Ci fib]
-7.6 -9.8 84 -13 -13 прохладно 1022.6 1018.4 -7.7
09 22.01 С 4 20 км 3/0
[Ac trans Ci fib]
-5.6 -10.5 68 -12 -10 прохладно 1023.8 1019.6
12 22.01 В 2 20 км ясно -6.5 -10.4 74 -11 -9 прохладно 1024.4 1020.2
15 22.01 С 2 20 км ясно -6.5 -10.4 74 -11 -11 прохладно 1024.4 1020.2
18 22.01 С 2 10 км ясно -7.6 -10.3 81 -12 -12 прохладно 1024.4 1020.2
21 22.01 В 3 10 км 8/8 300 м
[St]
-6.8 -8.8 86 -13 -13 прохладно 1024.6 1020.4
00 23.01 В 4 10 км 10/10 300 м
[St]
-7.1 -9.1 86 -14 -14 прохладно 1023.7 1019.5
03 23.01 В 3 10 км 10/10 300 м
[St]
-7.0 -9.1 85 -13 -13 прохладно 1022.4 1018.2 -7.8 5
06 23.01 В 4 10 км 10/10 300 м
[St]
-5.5 -7.6 85 -12 -12 прохладно 1022.0 1017.8
09 23.01 В 4
{10}
20 км 10/10 600 м
[St]
-4.8 -7.5 81 -11 -11 прохладно 1021.0 1016.9
12 23.01 В 5-10
{10}
20 км 10/10 300 м
[St]
-3.7 -6.0 84 -11 -11 прохладно 1018.8 1014.7
15 23.01 В 5
{11}
20 км 10/10 300 м
[St]
-2.3 -4.8 83 -9 -9 по сезону 1017.3 1013.2 -2.3
18 23.01 В 4
{10}
20 км 10/10 300 м
[St]
-1.7 -4.2 83 -7 -7 по сезону 1015.7 1011.7
21 23.01 ЮВ 5-10
{12}
20 км 10/10 300 м
[St]
-1.2 -3.1 87 -8 -8 по сезону 1014.5 1010.4

 

Местоположение метеостанции Таганрог (Ростовская область, Россия): широта 47.20 долгота 38.90 высота над уровнем моря 32 м.

В архиве по умолчанию представлена погода в Таганроге за последнюю неделю. Архивные данные за месяц целиком и за предыдущие месяцы, начиная с января 2011 года, Вы можете получить, выбрав интересующий диапазон дат из раскрывающегося списка и нажав кнопку "Ввод!".


*Определитесь, кто Вы:
робот инопланетянин человек

Внимание! Время в таблицах - всемирное. Для получения местного времени необходимо прибавить поправку, которая равна 3 ч.

Смотрите также архив погоды в соседних городах и на ближайших метеорологических станциях:

Погода в Маргаритово (Ростовская область, Россия) (30 км)
Погода в Матвеевом Кургане (Ростовская область, Россия) (41 км)
Погода в Ейске (Краснодарский край, Россия) (65 км)
Погода в Ростове-на-Дону (Ростовская область, Россия) (70 км)
Погода в Староминская (Краснодарский край, Россия) (75 км)
Погода в Аэропорту Платов (Ростовская область, Россия) (83 км)
Погода в Кущевской (Краснодарский край, Россия) (92 км)
Погода в Должанке (Краснодарский край, Россия) (106 км)
Погода в Мариуполе (Донецкая область, Украина) (108 км)
Погода в Зерноград (Ростовская область, Россия) (114 км)

Пояснения к столбцам:

Ветер - указаны скорость ветра в м/с - средняя за 10 мин, порывы в срок и между сроками (в фигурных скобках) и направление, откуда дует ветер: С - северный, СВ - северо-восточный, В - восточный, ЮВ - юго-восточный, Ю - южный, ЮЗ - юго-западный, З - западный, СЗ - северо-западный.
Видимость - горизонтальная дальность видимости в метрах или километрах. При видимости от 1 до 10 км при отсутствии осадков обычно наблюдается дымка, при ухудшении видимости до 1 км и менее - туман. В сухую погоду видимость может ухудшаться дымом, пылью или мглою.
Явления - указаны атмосферные явления, наблюдавшиеся в срок или в последний час перед сроком; фигурными скобками обозначены явления, наблюдавшиеся между сроками (за 1-3 часа до срока); квадратными скобками обозначены град или гололедные отложения с указанием их диаметра в мм.
Облачность - указаны через наклонную черту общая и нижняя облачность в баллах и высота нижней границы облаков в метрах; квадратными скобками обозначены формы облаков: Ci - перистые, Cs - перисто-слоистые, Cc - перисто-кучевые, Ac - высококучевые, As - высокослоистые, Sc - слоисто-кучевые, Ns - слоисто-дождевые, Cu - кучевые, Cb - кучево-дождевые. Подробнее классификацию облаков см. в Атласе облаков (PDF).
T - Температура воздуха - температура, измеренная на высоте 2 м над землей.
Td - Температура точки росы - температура, при понижении до которой содержащийся в воздухе водяной пар достигнет насыщения.
f - Относительная влажность воздуха - влажноcть воздуха, измеренная на высоте 2 м над землей.
Te - Эффективная температура - температура, которую ощущает одетый по сезону человек в тени. Характеристика душности погоды. При расчете учитывается влияние влажности воздуха и скорости ветра на теплоощущения человека.
Tes - Эффективная температура на солнце - температура, которую ощущает человек, с поправкой на солнечный нагрев. Характеристика знойности погоды. Зависит от высоты солнца над горизонтом, облачности и скорости ветра. Ночью, в пасмурную погоду, а также при ветре 12 м/с и более поправка равна нулю.
P - Атмосферное давление - приведенное к уровню моря атмосферное давление.
Po - Атмосферное давление - измеренное на уровне метеостанции атмосферное давление.
Tmin - Минимальная температура - минимум температуры воздуха на высоте 2 м над землей.
Tmax - Максимальная температура - максимум температуры воздуха на высоте 2 м над землей.
R - Количество осадков - Количество выпавших осадков за период времени, мм. При наведении курсора мыши на число - период времени, за который выпало указанное количество осадков.
R24 - Количество осадков - Количество выпавших осадков за 24 часа, мм.
S - Снежный покров - Высота снежного покрова, см. При наведении курсора мыши на число - состояние снежного покрова и степень покрытия местности в баллах.